Location: Erba
(45.8000°N, 9.2500°E)
Time: 19:16:59
(UTC+01:00)

ISS - Visible Passes

Search period start: 25 March 2019 00:00
Search period end: 04 April 2019 01:00
Orbit: 408 x 411 km, 51.6° (Epoch: 25 March)

Date Brightness Start Highest point End Pass type
(mag) Time Alt. Az. Time Alt. Az. Time Alt. Az.
25 Mar -2.9 20:16:53 10° W 20:20:05 45° NNW 20:21:38 25° NE visible
25 Mar -0.3 21:54:15 10° WNW 21:54:25 11° WNW 21:54:25 11° WNW visible
26 Mar -3.4 19:26:06 10° WSW 19:29:24 64° NNW 19:32:42 10° ENE visible
26 Mar -1.9 21:03:26 10° WNW 21:06:02 28° NNW 21:06:02 28° NNW visible
27 Mar -2.3 20:12:34 10° WNW 20:15:36 32° N 20:17:33 18° NE visible
27 Mar -0.5 21:49:44 10° NW 21:50:19 14° NW 21:50:19 14° NW visible
28 Mar -2.6 19:21:41 10° W 19:24:49 39° NNW 19:27:58 10° NE visible
28 Mar -2.1 20:59:01 10° WNW 21:01:45 28° N 21:01:45 28° N visible
29 Mar -2.1 20:08:12 10° WNW 20:11:08 28° N 20:13:09 16° NE visible
29 Mar -0.8 21:45:03 10° NW 21:45:54 16° NW 21:45:54 16° NW visible
30 Mar -2.2 19:17:19 10° WNW 19:20:18 30° N 19:23:16 10° ENE visible
30 Mar -2.5 20:54:22 10° NW 20:57:16 34° N 20:57:16 34° N visible
31 Mar -2.3 21:03:39 10° WNW 21:06:37 30° N 21:08:35 17° ENE visible
31 Mar -1.0 22:40:14 10° WNW 22:41:21 19° WNW 22:41:21 19° WNW visible
01 Apr -3.3 21:49:34 10° WNW 21:52:40 51° N 21:52:40 51° N visible
02 Apr -2.8 20:58:53 10° NW 21:02:01 39° NNE 21:03:59 19° ENE visible
02 Apr -1.3 22:35:29 10° WNW 22:36:44 21° WNW 22:36:44 21° WNW visible
03 Apr -3.9 21:44:42 10° WNW 21:48:01 83° SSW 21:48:04 82° S visible
